Location: Bats
(43.6587°N, 0.4584°W)
Time: 04:47:30
(UTC+00:00)

BREEZE-M DEB (TANK) - Visible Passes

Search period start: 21 April 2026 00:00
Search period end: 01 May 2026 00:00
Orbit: 281 x 16060 km, 49.5° (Epoch: 20 April)

Date Brightness Start Highest point End Pass type
(mag) Time Alt. Az. Time Alt. Az. Time Alt. Az.
28 Apr 7.1 01:48:42 10° SSE 01:56:35 12° SE 02:01:36 10° ESE visible
29 Apr 6.9 02:00:32 10° S 02:12:49 16° SE 02:19:01 10° ESE visible
30 Apr 6.8 02:13:47 10° S 02:28:54 19° SSE 02:35:23 10° ESE visible
